Time,TemperatureF,DewpointF,PressureIn,WindDirection,WindDirectionDegrees,WindSpeedMPH,WindSpeedGustMPH,Humidity,HourlyPrecipIn,Conditions,Clouds,dailyrainin,SolarRadiationWatts/m^2,SoftwareType,DateUTC
2013-03-19 00:00:00,31.0,31.0,-100.00,WSW,247,13.0,-999.0,97,-99.99,,,-99.99,0.000000,,2013-03-19 04:00:00,
2013-03-19 00:43:00,31.0,31.0,-100.00,WSW,247,13.0,-999.0,97,-99.99,,,-99.99,0.000000,,2013-03-19 04:43:00,
2013-03-19 00:53:00,31.0,31.0,-100.00,WSW,247,13.0,-999.0,97,-99.99,,,-99.99,0.000000,,2013-03-19 04:53:00,
2013-03-19 01:00:00,31.0,30.0,-100.00,WSW,247,14.0,-999.0,95,-99.99,,,-99.99,0.000000,,2013-03-19 05:00:00,
2013-03-19 01:43:00,31.0,30.0,-100.00,WSW,247,14.0,-999.0,95,-99.99,,,-99.99,0.000000,,2013-03-19 05:43:00,
2013-03-19 01:52:00,31.0,30.0,-100.00,WSW,247,14.0,-999.0,95,-99.99,,,-99.99,0.000000,,2013-03-19 05:52:00,
2013-03-19 02:00:00,28.0,27.0,-100.00,WSW,247,18.0,-999.0,94,-99.99,,,-99.99,0.000000,,2013-03-19 06:00:00,
2013-03-19 02:42:00,28.0,27.0,-100.00,WSW,247,18.0,-999.0,94,-99.99,,,-99.99,0.000000,,2013-03-19 06:42:00,
2013-03-19 02:53:00,28.0,27.0,-100.00,WSW,247,18.0,-999.0,94,-99.99,,,-99.99,0.000000,,2013-03-19 06:53:00,
2013-03-19 03:00:00,25.0,23.0,-100.00,WSW,247,18.0,-999.0,90,-99.99,,,-99.99,0.000000,,2013-03-19 07:00:00,
2013-03-19 03:42:00,25.0,23.0,-100.00,WSW,247,18.0,-999.0,90,-99.99,,,-99.99,0.000000,,2013-03-19 07:42:00,
2013-03-19 03:53:00,25.0,23.0,-100.00,WSW,247,18.0,-999.0,90,-99.99,,,-99.99,0.000000,,2013-03-19 07:53:00,
2013-03-19 04:00:00,23.0,20.0,-100.00,WSW,247,19.0,-999.0,88,-99.99,,,-99.99,0.000000,,2013-03-19 08:00:00,
2013-03-19 04:43:00,23.0,20.0,-100.00,WSW,247,19.0,-999.0,88,-99.99,,,-99.99,0.000000,,2013-03-19 08:43:00,
2013-03-19 04:53:00,23.0,20.0,-100.00,WSW,247,19.0,-999.0,88,-99.99,,,-99.99,0.000000,,2013-03-19 08:53:00,
2013-03-19 05:00:00,21.0,19.0,-100.00,WSW,247,15.0,-999.0,90,-99.99,,,-99.99,0.000000,,2013-03-19 09:00:00,
2013-03-19 05:43:00,21.0,19.0,-100.00,WSW,247,15.0,-999.0,90,-99.99,,,-99.99,0.000000,,2013-03-19 09:43:00,
2013-03-19 05:53:00,21.0,19.0,-100.00,WSW,247,15.0,-999.0,90,-99.99,,,-99.99,0.000000,,2013-03-19 09:53:00,
2013-03-19 06:00:00,20.0,17.0,-100.00,WSW,247,16.0,-999.0,87,-99.99,,,-99.99,0.000000,,2013-03-19 10:00:00,
2013-03-19 06:42:00,20.0,17.0,-100.00,WSW,247,16.0,-999.0,87,-99.99,,,-99.99,0.000000,,2013-03-19 10:42:00,
2013-03-19 06:53:00,20.0,17.0,-100.00,WSW,247,16.0,-999.0,87,-99.99,,,-99.99,0.000000,,2013-03-19 10:53:00,
2013-03-19 07:00:00,19.0,16.0,-100.00,WSW,247,15.0,-999.0,86,-99.99,,,-99.99,0.000000,,2013-03-19 11:00:00,
2013-03-19 07:43:00,19.0,16.0,-100.00,WSW,247,15.0,-999.0,86,-99.99,,,-99.99,0.000000,,2013-03-19 11:43:00,
2013-03-19 07:53:00,19.0,16.0,-100.00,WSW,247,15.0,-999.0,86,-99.99,,,-99.99,0.000000,,2013-03-19 11:53:00,
2013-03-19 09:00:00,18.0,16.0,-100.00,WSW,247,14.0,-999.0,89,-99.99,,,-99.99,37.119999,,2013-03-19 13:00:00,
2013-03-19 09:42:00,18.0,16.0,-100.00,WSW,247,14.0,-999.0,89,-99.99,,,-99.99,37.119999,,2013-03-19 13:42:00,
2013-03-19 09:53:00,18.0,16.0,-100.00,WSW,247,14.0,-999.0,89,-99.99,,,-99.99,37.119999,,2013-03-19 13:53:00,
2013-03-19 10:00:00,19.0,16.0,-100.00,WSW,247,15.0,-999.0,88,-99.99,,,-99.99,129.919998,,2013-03-19 14:00:00,
2013-03-19 10:42:00,19.0,16.0,-100.00,WSW,247,15.0,-999.0,88,-99.99,,,-99.99,129.919998,,2013-03-19 14:42:00,
2013-03-19 10:53:00,19.0,16.0,-100.00,WSW,247,15.0,-999.0,88,-99.99,,,-99.99,129.919998,,2013-03-19 14:53:00,
2013-03-19 13:00:00,20.0,15.0,-100.00,West,270,19.0,-999.0,81,-99.99,,,-99.99,425.720001,,2013-03-19 17:00:00,
2013-03-19 13:44:00,20.0,15.0,-100.00,West,270,19.0,-999.0,81,-99.99,,,-99.99,425.720001,,2013-03-19 17:44:00,
2013-03-19 13:53:00,20.0,15.0,-100.00,West,270,19.0,-999.0,81,-99.99,,,-99.99,425.720001,,2013-03-19 17:53:00,
2013-03-19 15:00:00,20.0,15.0,-100.00,WSW,247,19.0,-999.0,81,-99.99,,,-99.99,328.279999,,2013-03-19 19:00:00,
2013-03-19 15:43:00,20.0,15.0,-100.00,WSW,247,19.0,-999.0,81,-99.99,,,-99.99,328.279999,,2013-03-19 19:43:00,
2013-03-19 15:53:00,20.0,15.0,-100.00,WSW,247,19.0,-999.0,81,-99.99,,,-99.99,328.279999,,2013-03-19 19:53:00,
2013-03-19 16:00:00,20.0,15.0,-100.00,WSW,247,20.0,-999.0,81,-99.99,,,-99.99,248.240005,,2013-03-19 20:00:00,
2013-03-19 16:43:00,20.0,15.0,-100.00,WSW,247,20.0,-999.0,81,-99.99,,,-99.99,248.240005,,2013-03-19 20:43:00,
2013-03-19 16:53:00,20.0,15.0,-100.00,WSW,247,20.0,-999.0,81,-99.99,,,-99.99,248.240005,,2013-03-19 20:53:00,
2013-03-19 17:00:00,20.0,16.0,-100.00,WSW,247,19.0,-999.0,81,-99.99,,,-99.99,225.039993,,2013-03-19 21:00:00,
2013-03-19 17:43:00,20.0,16.0,-100.00,WSW,247,19.0,-999.0,81,-99.99,,,-99.99,225.039993,,2013-03-19 21:43:00,
2013-03-19 17:53:00,20.0,16.0,-100.00,WSW,247,19.0,-999.0,81,-99.99,,,-99.99,225.039993,,2013-03-19 21:53:00,
2013-03-19 18:00:00,22.0,17.0,-100.00,WSW,247,16.0,-999.0,81,-99.99,,,-99.99,223.880005,,2013-03-19 22:00:00,
2013-03-19 18:54:00,22.0,17.0,-100.00,WSW,247,16.0,-999.0,81,-99.99,,,-99.99,223.880005,,2013-03-19 22:54:00,
2013-03-19 20:00:00,23.0,20.0,-100.00,WSW,247,13.0,-999.0,88,-99.99,,,-99.99,20.879999,,2013-03-20 00:00:00,
2013-03-19 20:43:00,23.0,20.0,-100.00,WSW,247,13.0,-999.0,88,-99.99,,,-99.99,20.879999,,2013-03-20 00:43:00,
2013-03-19 20:52:00,23.0,20.0,-100.00,WSW,247,13.0,-999.0,88,-99.99,,,-99.99,20.879999,,2013-03-20 00:52:00,
2013-03-19 21:00:00,24.0,19.0,-100.00,WSW,247,13.0,-999.0,83,-99.99,,,-99.99,0.000000,,2013-03-20 01:00:00,
2013-03-19 21:43:00,24.0,19.0,-100.00,WSW,247,13.0,-999.0,83,-99.99,,,-99.99,0.000000,,2013-03-20 01:43:00,
2013-03-19 21:53:00,24.0,19.0,-100.00,WSW,247,13.0,-999.0,83,-99.99,,,-99.99,0.000000,,2013-03-20 01:53:00,
2013-03-19 22:00:00,24.0,16.0,-100.00,West,270,14.0,-999.0,69,-99.99,,,-99.99,0.000000,,2013-03-20 02:00:00,
2013-03-19 22:43:00,24.0,16.0,-100.00,West,270,14.0,-999.0,69,-99.99,,,-99.99,0.000000,,2013-03-20 02:43:00,
2013-03-19 22:53:00,24.0,16.0,-100.00,West,270,14.0,-999.0,69,-99.99,,,-99.99,0.000000,,2013-03-20 02:53:00,
2013-03-19 23:00:00,22.0,13.0,-100.00,WSW,247,10.0,-999.0,67,-99.99,,,-99.99,0.000000,,2013-03-20 03:00:00,
2013-03-19 23:43:00,22.0,13.0,-100.00,WSW,247,10.0,-999.0,67,-99.99,,,-99.99,0.000000,,2013-03-20 03:43:00,
2013-03-19 23:53:00,22.0,13.0,-100.00,WSW,247,10.0,-999.0,67,-99.99,,,-99.99,0.000000,,2013-03-20 03:53:00,